Orbital Elements at Epoch 2459200.5 (2020-Dec-17.0) TDB
Reference: JPL 17 (heliocentric ecliptic J2000)
Element | Value | Uncertainty (1-sigma) | Units |
e | .06223596565714552 | 3.237e-08 | |
a | 1.896320768987288 | 5.8608e-09 | au |
q | 1.778301414733663 | 6.2287e-08 | au |
i | 19.88325168286176 | 6.1233e-06 | deg |
node | 316.7519473613095 | 1.017e-05 | deg |
peri | 69.16286273205036 | 5.8292e-05 | deg |
M | 37.1373229639573 | 5.4315e-05 | deg |
tp | 2459102.104729729819 (2020-Sep-09.60472973) | 0.00014402 | TDB |
period | 953.8193512667372 2.61 | 4.4218e-06 1.211e-08 | d yr |
n | .3774299604237379 | 1.7497e-09 | deg/d |
Q | 2.014340123240912 | 6.2256e-09 | au |
|
| | Orbit Determination Parameters
Additional Information
|